27/05/2011,00:00:10,   0.0,  0.0,  356, +7.0,  80.0,    0.3,  +12.1,  +13.0,   +6.3,+1100.00,F1
27/05/2011,00:00:28,   0.0,  0.0,   39, +7.0,  80.1,    0.4,  +12.1,  +13.0,   +6.4,+1100.00,EB
27/05/2011,00:00:54,   0.0,  0.0,  108, +7.0,  80.1,    0.2,  +12.2,  +13.0,   +6.5,+1100.00,F7
27/05/2011,00:01:13,   0.0,  0.0,   17, +7.0,  80.1,    0.1,  +12.1,  +13.1,   +6.4,+1100.00,E0
27/05/2011,00:01:31,   0.0,  0.0,   17, +7.0,  80.1,    0.4,  +12.0,  +13.1,   +6.4,+1100.00,E2
27/05/2011,00:01:48,   0.0,  0.0,   14, +7.0,  80.4,    0.3,  +12.1,  +13.1,   +6.5,+1100.00,EB
27/05/2011,00:02:14,   0.0,  0.0,  344, +7.0,  80.3,    0.2,  +12.2,  +13.0,   +6.5,+1100.00,F9
27/05/2011,00:02:32,   0.0,  0.0,  342, +7.0,  80.5,    0.3,  +12.1,  +13.1,   +6.5,+1100.00,FA
27/05/2011,00:02:50,   0.0,  0.0,  205, +7.0,  80.4,    0.3,  +12.0,  +13.1,   +6.6,+1100.00,F7
27/05/2011,00:03:08,   0.0,  0.0,  338, +7.0,  80.7,    0.2,  +12.2,  +12.9,   +6.7,+1100.00,0E
27/05/2011,00:03:34,   0.0,  0.0,  228, +7.0,  80.8,    0.2,  +12.1,  +13.1,   +6.6,+1100.00,03
27/05/2011,00:03:52,   0.0,  1.3,  358, +7.0,  80.5,    0.3,  +12.1,  +13.0,   +6.7,+1100.00,09
27/05/2011,00:04:10,   0.0,  1.0,   38, +7.0,  80.5,    0.4,  +12.1,  +13.0,   +6.7,+1100.00,ED
27/05/2011,00:04:28,   0.0,  1.1,   20, +7.0,  80.7,    0.4,  +12.1,  +13.0,   +6.7,+1100.00,F0
27/05/2011,00:04:54,   0.0,  0.9,  258, +7.0,  80.6,    0.2,  +12.1,  +13.1,   +6.7,+1100.00,11
27/05/2011,00:05:12,   0.0,  1.3,  323, +7.0,  80.5,    0.3,  +12.1,  +13.0,   +6.8,+1100.00,00
27/05/2011,00:05:30,   0.0,  1.5,  299, +7.0,  80.6,    0.3,  +12.2,  +12.9,   +6.8,+1100.00,18
27/05/2011,00:05:48,   0.0,  0.9,  321, +7.0,  80.6,    0.3,  +12.1,  +13.0,   +6.8,+1100.00,0D
27/05/2011,00:06:14,   0.0,  0.0,  285, +7.0,  80.6,    0.3,  +12.1,  +13.0,   +6.8,+1100.00,07
27/05/2011,00:06:32,   0.0,  0.0,  309, +7.0,  80.6,    0.3,  +12.1,  +13.0,   +6.9,+1100.00,05
27/05/2011,00:06:50,   0.0,  0.0,  277, +7.0,  80.6,    0.4,  +12.2,  +13.0,   +6.9,+1100.00,0B
27/05/2011,00:07:08,   0.0,  0.0,  295, +7.0,  80.6,    0.2,  +12.0,  +13.1,   +6.9,+1100.00,0C
27/05/2011,00:07:34,   0.0,  0.0,  264, +7.0,  80.8,    0.3,  +12.2,  +13.0,   +7.0,+1100.00,03
27/05/2011,00:07:52,   0.0,  0.0,  234, +7.0,  80.8,    0.1,  +12.1,  +13.0,   +7.0,+1100.00,FD
27/05/2011,00:08:10,   0.0,  0.0,  283, +7.0,  80.7,    0.3,  +12.1,  +13.0,   +7.1,+1100.00,FE
27/05/2011,00:08:28,   0.0,  0.0,  251, +7.0,  80.6,    0.2,  +12.1,  +13.0,   +7.1,+1100.00,00
27/05/2011,00:08:54,   0.0,  0.0,  282, +7.0,  80.6,    0.3,  +12.0,  +13.1,   +7.1,+1100.00,04
27/05/2011,00:09:12,   0.0,  0.0,  166, +7.0,  80.6,    0.5,  +12.1,  +13.0,   +7.2,+1100.00,03
27/05/2011,00:09:30,   0.0,  0.0,  252, +7.0,  80.7,    0.3,  +12.1,  +13.0,   +7.2,+1100.00,FE
27/05/2011,00:09:55,   0.0,  0.0,  268, +7.1,  80.9,    0.4,  +12.1,  +13.0,   +7.2,+1100.00,10
27/05/2011,00:10:13,   0.0,  0.0,  278, +7.1,  81.0,    0.3,  +12.2,  +13.0,   +7.3,+1100.00,FC
27/05/2011,00:10:31,   0.0,  0.0,  266, +7.0,  80.9,    0.3,  +12.1,  +13.0,   +7.3,+1100.00,FF
27/05/2011,00:10:49,   0.0,  1.0,  310, +7.1,  81.0,    0.4,  +12.1,  +13.1,   +7.3,+1100.00,FA
27/05/2011,00:11:15,   0.0,  0.0,  302, +7.1,  81.2,    0.3,  +12.0,  +13.1,   +7.3,+1100.00,F4
27/05/2011,00:11:33,   0.0,  0.9,  290, +7.0,  81.2,    0.4,  +12.1,  +13.1,   +7.3,+1100.00,04
27/05/2011,00:11:51,   0.0,  0.7,  338, +7.0,  81.2,    0.4,  +12.1,  +13.0,   +7.4,+1100.00,05
27/05/2011,00:12:08,   0.0,  1.2,  291, +7.1,  81.5,    0.5,  +12.1,  +13.0,   +7.4,+1100.00,07
27/05/2011,00:12:34,   0.0,  1.7,  309, +7.1,  81.4,    0.4,  +12.1,  +13.1,   +7.4,+1100.00,0A
27/05/2011,00:12:52,   0.0,  0.4,  122, +7.1,  81.4,    0.3,  +12.1,  +13.0,   +7.4,+1100.00,FD
27/05/2011,00:13:10,   0.0,  0.6,  257, +7.1,  81.4,    0.3,  +12.2,  +13.0,   +7.4,+1100.00,04
27/05/2011,00:13:28,   0.0,  1.5,  277, +7.1,  81.7,    0.4,  +12.0,  +13.1,   +7.4,+1100.00,12
27/05/2011,00:13:54,   0.0,  0.6,  256, +7.0,  81.8,    0.2,  +12.1,  +13.0,   +7.4,+1100.00,0C
27/05/2011,00:14:12,   0.0,  0.0,  190, +7.0,  81.8,    0.3,  +12.0,  +13.1,   +7.5,+1100.00,00
27/05/2011,00:14:30,   0.0,  1.7,  319, +7.1,  81.8,    0.4,  +12.1,  +13.0,   +7.5,+1100.00,0D
27/05/2011,00:14:48,   0.0,  0.9,  291, +7.1,  81.8,    0.5,  +12.1,  +13.1,   +7.5,+1100.00,18
27/05/2011,00:15:14,   0.0,  0.2,  269, +7.0,  81.7,    0.2,  +12.0,  +13.1,   +7.5,+1100.00,0A
27/05/2011,00:15:32,   0.0,  0.0,  326, +7.1,  81.7,    0.3,  +12.1,  +13.1,   +7.5,+1100.00,05
27/05/2011,00:15:50,   0.0,  0.0,  265, +7.1,  81.7,    0.2,  +12.1,  +13.0,   +7.6,+1100.00,06
27/05/2011,00:16:08,   0.0,  0.0,  279, +7.1,  81.9,    0.4,  +12.1,  +13.1,   +7.5,+1100.00,13
27/05/2011,00:16:34,   0.0,  2.3,  288, +7.1,  82.1,    0.2,  +12.2,  +13.0,   +7.6,+1100.00,0F
27/05/2011,00:16:52,   0.0,  1.2,  300, +7.1,  82.1,    0.3,  +12.2,  +12.9,   +7.7,+1100.00,08
27/05/2011,00:17:10,   0.0,  0.4,  206, +7.1,  82.1,    0.1,  +12.0,  +13.1,   +7.6,+1100.00,FD
27/05/2011,00:17:28,   0.0,  0.9,  224, +7.1,  82.0,    0.2,  +12.1,  +13.0,   +7.7,+1100.00,0C
27/05/2011,00:17:54,   0.0,  0.9,   44, +7.1,  81.5,    0.3,  +12.1,  +13.0,   +7.6,+1100.00,FF
27/05/2011,00:18:12,   0.0,  0.1,  198, +7.1,  81.4,    0.3,  +12.1,  +13.0,   +7.7,+1100.00,0C
27/05/2011,00:18:30,   0.0,  0.0,  178, +7.1,  81.4,    0.4,  +12.1,  +13.0,   +7.7,+1100.00,0A
27/05/2011,00:18:48,   0.0,  0.0,  285, +7.1,  81.7,    0.5,  +12.1,  +13.1,   +7.7,+1100.00,17
27/05/2011,00:19:14,   0.0,  0.0,  284, +7.1,  81.9,    0.1,  +12.2,  +13.0,   +7.7,+1100.00,0E
27/05/2011,00:19:32,   0.0,  0.7,   47, +7.1,  81.9,    0.1,  +12.1,  +13.0,   +7.7,+1100.00,01
27/05/2011,00:19:50,   0.0,  2.8,  310, +7.2,  81.7,    0.5,  +12.1,  +13.0,   +7.7,+1100.00,10
27/05/2011,00:20:08,   0.0,  3.3,  276, +7.2,  81.4,    0.3,  +12.1,  +13.1,   +7.7,+1100.00,0E
27/05/2011,00:20:34,   0.0,  3.9,  321, +7.2,  81.2,    0.3,  +12.2,  +13.0,   +7.7,+1100.00,08
27/05/2011,00:20:52,   0.0,  2.8,  279, +7.2,  80.8,    0.2,  +12.1,  +13.0,   +7.7,+1100.00,15
27/05/2011,00:21:10,   0.0,  2.2,  308, +7.2,  81.1,    0.5,  +12.1,  +13.1,   +7.7,+1100.00,01
27/05/2011,00:21:28,   0.0,  2.5,  329, +7.2,  80.9,    0.5,  +12.1,  +13.0,   +7.7,+1100.00,16
27/05/2011,00:21:54,   0.0,  1.7,  267, +7.2,  80.7,    0.3,  +12.2,  +12.9,   +7.8,+1100.00,1D
27/05/2011,00:22:12,   0.0,  3.6,  288, +7.2,  80.6,    0.1,  +12.1,  +13.0,   +7.8,+1100.00,10
27/05/2011,00:22:30,   0.0,  2.8,  296, +7.3,  80.4,    0.5,  +12.2,  +12.9,   +7.8,+1100.00,1C
27/05/2011,00:22:48,   0.0,  1.4,  312, +7.3,  80.5,    0.4,  +12.1,  +13.1,   +7.7,+1100.00,0C
27/05/2011,00:23:14,   0.0,  1.0,  272, +7.3,  80.9,    0.2,  +12.1,  +13.1,   +7.7,+1100.00,09
27/05/2011,00:23:32,   0.0,  0.8,  289, +7.3,  81.2,    0.3,  +12.1,  +13.0,   +7.8,+1100.00,13
27/05/2011,00:23:50,   0.0,  0.7,  263, +7.3,  81.1,    0.4,  +12.2,  +13.0,   +7.8,+1100.00,0B
27/05/2011,00:24:08,   0.0,  1.4,  282, +7.3,  81.0,    0.5,  +12.1,  +13.0,   +7.8,+1100.00,0D
27/05/2011,00:24:34,   0.0,  3.0,  277, +7.3,  80.3,    0.3,  +12.1,  +13.0,   +7.7,+1100.00,0D
27/05/2011,00:24:52,   0.0,  1.3,  298, +7.3,  80.1,    0.3,  +12.1,  +13.0,   +7.8,+1100.00,10
27/05/2011,00:25:10,   0.0,  1.0,  296, +7.3,  80.1,    0.2,  +12.1,  +13.0,   +7.7,+1100.00,04
27/05/2011,00:25:28,   0.0,  1.8,  230, +7.3,  80.1,    0.2,  +12.1,  +13.0,   +7.8,+1100.00,0A
27/05/2011,00:25:54,   0.0,  2.9,  283, +7.3,  80.1,    0.2,  +12.1,  +13.0,   +7.7,+1100.00,12
27/05/2011,00:26:12,   0.0,  3.7,  277, +7.3,  80.1,    0.3,  +12.1,  +13.0,   +7.8,+1100.00,11
27/05/2011,00:26:30,   0.0,  1.8,  269, +7.3,  80.0,    0.4,  +12.2,  +13.0,   +7.8,+1100.00,12
27/05/2011,00:26:48,   0.0,  2.0,  291, +7.4,  79.9,    0.4,  +12.2,  +13.0,   +7.8,+1100.00,21
27/05/2011,00:27:14,   0.0,  1.1,  290, +7.3,  79.8,    0.3,  +12.1,  +13.0,   +7.7,+1100.00,15
27/05/2011,00:27:32,   0.0,  1.9,  259, +7.3,  79.8,    0.3,  +12.2,  +12.9,   +7.8,+1100.00,2C
27/05/2011,00:27:50,   0.0,  3.3,  278, +7.3,  79.7,    0.4,  +12.1,  +13.1,   +7.8,+1100.00,21
27/05/2011,00:28:08,   0.0,  1.8,  310, +7.3,  79.4,    0.4,  +12.2,  +12.9,   +7.8,+1100.00,20
27/05/2011,00:28:34,   0.0,  2.0,  289, +7.4,  79.4,    0.3,  +12.1,  +13.0,   +7.7,+1100.00,1D
27/05/2011,00:28:52,   0.0,  2.8,  294, +7.3,  79.4,    0.3,  +12.0,  +13.0,   +7.7,+1100.00,1F
27/05/2011,00:29:10,   0.0,  4.1,  293, +7.4,  79.2,    0.3,  +12.2,  +13.0,   +7.8,+1100.00,16
27/05/2011,00:29:28,   0.0,  3.1,  258, +7.3,  79.3,    0.3,  +12.1,  +13.0,   +7.7,+1100.00,1D
27/05/2011,00:29:54,   0.0,  3.8,  322, +7.4,  79.2,    0.2,  +12.1,  +13.0,   +7.7,+1100.00,1A
27/05/2011,00:30:12,   0.0,  4.4,  304, +7.4,  79.0,    0.2,  +12.1,  +13.0,   +7.7,+1100.00,07
27/05/2011,00:30:30,   0.0,  2.6,  271, +7.4,  79.0,    0.3,  +12.1,  +13.0,   +7.7,+1100.00,0B
27/05/2011,00:30:48,   0.0,  2.0,  126, +7.4,  78.9,    0.3,  +12.1,  +13.0,   +7.7,+1100.00,15
27/05/2011,00:31:14,   0.0,  2.9,  313, +7.4,  78.8,    0.3,  +12.1,  +13.1,   +7.6,+1100.00,15
27/05/2011,00:31:32,   0.0,  2.4,  278, +7.4,  78.6,    0.2,  +12.1,  +13.0,   +7.7,+1100.00,17
27/05/2011,00:31:50,   0.0,  1.6,  285, +7.4,  78.7,    0.5,  +12.1,  +13.1,   +7.6,+1100.00,1A
27/05/2011,00:32:08,   0.0,  1.5,  259, +7.4,  78.7,    0.4,  +12.1,  +13.1,   +7.6,+1100.00,1D
27/05/2011,00:32:34,   0.0,  0.9,  233, +7.4,  78.7,    0.3,  +12.1,  +13.0,   +7.6,+1100.00,15
27/05/2011,00:32:52,   0.0,  0.0,  263, +7.4,  78.7,    0.2,  +12.1,  +13.0,   +7.6,+1100.00,0E
27/05/2011,00:33:10,   0.0,  0.6,  338, +7.4,  78.8,    0.3,  +12.1,  +13.1,   +7.6,+1100.00,15
27/05/2011,00:33:28,   0.0,  0.8,  226, +7.4,  78.8,    0.4,  +12.1,  +13.0,   +7.6,+1100.00,1C
27/05/2011,00:33:54,   0.0,  1.1,  309, +7.4,  78.9,    0.4,  +12.1,  +13.0,   +7.6,+1100.00,18
27/05/2011,00:34:12,   0.0,  2.1,  288, +7.3,  79.0,    0.4,  +12.1,  +13.0,   +7.6,+1100.00,11
27/05/2011,00:34:30,   0.0,  1.3,  133, +7.4,  78.9,    0.4,  +12.1,  +13.1,   +7.5,+1100.00,10
27/05/2011,00:34:48,   0.0,  1.1,  113, +7.4,  78.9,    0.4,  +12.1,  +13.0,   +7.5,+1100.00,14
27/05/2011,00:35:14,   0.0,  1.6,  216, +7.4,  78.9,    0.3,  +12.1,  +13.0,   +7.5,+1100.00,16
27/05/2011,00:35:32,   0.0,  0.1,  310, +7.4,  78.9,    0.2,  +12.1,  +13.1,   +7.5,+1100.00,0B
27/05/2011,00:35:50,   0.0,  0.2,  140, +7.4,  78.9,    0.2,  +12.1,  +13.0,   +7.5,+1100.00,0C
27/05/2011,00:36:08,   0.0,  0.0,  256, +7.4,  78.9,    0.5,  +12.1,  +13.0,   +7.5,+1100.00,19
27/05/2011,00:36:34,   0.0,  0.0,  243, +7.4,  78.8,    0.2,  +12.1,  +13.1,   +7.4,+1100.00,10
27/05/2011,00:36:52,   0.0,  0.0,  290, +7.4,  78.8,    0.3,  +12.0,  +13.1,   +7.4,+1100.00,12
27/05/2011,00:37:10,   0.0,  0.0,  234, +7.4,  78.9,    0.5,  +12.1,  +13.0,   +7.5,+1100.00,0F
27/05/2011,00:37:28,   0.0,  2.3,  269, +7.4,  78.9,    0.5,  +12.1,  +13.0,   +7.4,+1100.00,24
27/05/2011,00:37:54,   0.0,  2.5,  291, +7.4,  78.9,    0.2,  +12.2,  +13.0,   +7.4,+1100.00,1E
27/05/2011,00:38:12,   0.0,  1.3,  270, +7.4,  79.0,    0.2,  +12.1,  +13.0,   +7.4,+1100.00,0A
27/05/2011,00:38:30,   0.0,  2.0,  287, +7.4,  79.0,    0.4,  +12.0,  +13.1,   +7.3,+1100.00,11
27/05/2011,00:38:48,   0.0,  4.7,  282, +7.3,  79.0,    0.4,  +12.1,  +13.0,   +7.3,+1100.00,1D
27/05/2011,00:39:14,   0.0,  1.3,  205, +7.3,  79.2,    0.2,  +12.1,  +13.0,   +7.2,+1100.00,0A
27/05/2011,00:39:32,   0.0,  1.3,  246, +7.3,  79.3,    0.3,  +12.2,  +13.0,   +7.3,+1100.00,13
27/05/2011,00:39:50,   0.0,  2.7,  359, +7.3,  79.3,    0.3,  +12.1,  +13.0,   +7.3,+1100.00,1C
27/05/2011,00:40:08,   0.0,  1.3,  267, +7.3,  79.3,    0.3,  +12.2,  +13.0,   +7.3,+1100.00,11
27/05/2011,00:40:34,   0.0,  2.2,  276, +7.3,  79.4,    0.2,  +12.1,  +13.0,   +7.2,+1100.00,0E
27/05/2011,00:40:52,   0.0,  4.6,  268, +7.3,  79.4,    0.3,  +12.0,  +13.1,   +7.1,+1100.00,15
27/05/2011,00:41:10,   0.0,  2.4,  281, +7.3,  79.5,    0.3,  +12.1,  +13.0,   +7.2,+1100.00,09
27/05/2011,00:41:28,   0.0,  4.9,  304, +7.3,  79.6,    0.4,  +12.2,  +13.0,   +7.2,+1100.00,18
27/05/2011,00:41:54,   0.0,  3.0,  254, +7.3,  79.5,    0.2,  +12.1,  +13.1,   +7.1,+1100.00,0D
27/05/2011,00:42:12,   0.0,  3.6,  285, +7.3,  79.6,    0.3,  +12.0,  +13.1,   +7.1,+1100.00,13
27/05/2011,00:42:30,   0.0,  2.4,  298, +7.2,  79.7,    0.4,  +12.1,  +13.0,   +7.1,+1100.00,15
27/05/2011,00:42:48,   0.0,  2.2,  285, +7.3,  79.7,    0.4,  +12.1,  +13.0,   +7.1,+1100.00,19
27/05/2011,00:43:14,   0.0,  1.1,  240, +7.3,  79.7,    0.3,  +12.1,  +13.0,   +7.1,+1100.00,07
27/05/2011,00:43:32,   0.0,  2.7,  273, +7.3,  79.8,    0.1,  +12.0,  +13.1,   +7.1,+1100.00,13
27/05/2011,00:43:50,   0.0,  1.8,  286, +7.2,  79.8,    0.4,  +12.2,  +13.0,   +7.1,+1100.00,1A
27/05/2011,00:44:08,   0.0,  2.5,  284, +7.2,  79.9,    0.4,  +12.1,  +13.0,   +7.0,+1100.00,19
27/05/2011,00:44:34,   0.0,  2.4,  241, +7.2,  79.9,    0.3,  +12.2,  +13.0,   +7.0,+1100.00,10
27/05/2011,00:44:52,   0.0,  0.7,  281, +7.2,  79.9,    0.3,  +12.0,  +13.1,   +7.0,+1100.00,14
27/05/2011,00:45:10,   0.0,  1.5,  270, +7.2,  80.0,    0.3,  +12.2,  +13.0,   +7.0,+1100.00,FC
27/05/2011,00:45:28,   0.0,  4.0,  257, +7.2,  80.0,    0.4,  +12.1,  +13.0,   +7.0,+1100.00,08
27/05/2011,00:45:54,   0.0,  2.4,  284, +7.2,  80.1,    0.2,  +12.1,  +13.0,   +6.9,+1100.00,10
27/05/2011,00:46:12,   0.0,  1.5,  269, +7.2,  80.1,    0.3,  +12.1,  +13.0,   +7.0,+1100.00,07
27/05/2011,00:46:30,   0.0,  2.2,  289, +7.2,  80.3,    0.5,  +12.0,  +13.1,   +6.9,+1100.00,13
27/05/2011,00:46:48,   0.0,  3.1,  251, +7.2,  80.2,    0.1,  +12.1,  +13.0,   +6.9,+1100.00,0C
27/05/2011,00:47:14,   0.0,  1.8,  277, +7.2,  80.3,    0.2,  +12.1,  +13.0,   +6.9,+1100.00,15
27/05/2011,00:47:32,   0.0,  1.1,  326, +7.2,  80.3,    0.3,  +12.2,  +13.0,   +6.9,+1100.00,0B
27/05/2011,00:47:50,   0.0,  6.0,  308, +7.2,  80.3,    0.4,  +12.1,  +13.0,   +6.9,+1100.00,0F
27/05/2011,00:48:08,   0.0,  4.1,  294, +7.2,  80.4,    0.4,  +12.1,  +13.0,   +6.9,+1100.00,17
27/05/2011,00:48:34,   0.0,  2.6,  316, +7.2,  80.5,    0.2,  +12.1,  +13.0,   +6.8,+1100.00,12
27/05/2011,00:48:52,   0.0,  2.2,  267, +7.2,  80.6,    0.3,  +12.2,  +12.9,   +6.9,+1100.00,1F
27/05/2011,00:49:10,   0.0,  0.7,  291, +7.2,  80.6,    0.2,  +12.1,  +13.1,   +6.8,+1100.00,10
27/05/2011,00:49:28,   0.0,  1.0,  148, +7.2,  80.6,    0.2,  +12.2,  +13.0,   +6.9,+1100.00,15
27/05/2011,00:49:54,   0.0,  0.3,  245, +7.2,  80.6,    0.3,  +12.0,  +13.1,   +6.8,+1100.00,13
27/05/2011,00:50:12,   0.0,  0.9,  277, +7.2,  80.6,    0.2,  +12.1,  +13.1,   +6.9,+1100.00,11
27/05/2011,00:50:30,   0.0,  5.0,  281, +7.2,  80.7,    0.1,  +12.1,  +13.0,   +6.8,+1100.00,06
27/05/2011,00:50:48,   0.0,  1.7,  278, +7.2,  80.8,    0.2,  +12.1,  +13.0,   +6.8,+1100.00,1A
27/05/2011,00:51:14,   0.0,  1.2,  272, +7.2,  81.0,    0.2,  +12.1,  +13.0,   +6.7,+1100.00,01
27/05/2011,00:51:32,   0.0,  1.8,  249, +7.1,  81.0,    0.2,  +12.2,  +12.9,   +6.8,+1100.00,14
27/05/2011,00:51:50,   0.0,  2.3,  300, +7.2,  81.0,    0.5,  +12.1,  +13.0,   +6.7,+1100.00,FE
27/05/2011,00:52:08,   0.0,  4.3,  284, +7.1,  81.0,    0.4,  +12.1,  +13.0,   +6.7,+1100.00,0D
27/05/2011,00:52:34,   0.0,  2.5,  232, +7.1,  81.1,    0.2,  +12.2,  +13.0,   +6.7,+1100.00,05
27/05/2011,00:52:52,   0.0,  3.2,  319, +7.1,  81.2,    0.3,  +12.2,  +12.9,   +6.7,+1100.00,13
27/05/2011,00:53:10,   0.0,  3.5,  333, +7.2,  81.2,    0.4,  +12.1,  +13.0,   +6.7,+1100.00,06
27/05/2011,00:53:28,   0.0,  2.2,  273, +7.1,  81.2,    0.4,  +12.1,  +13.0,   +6.7,+1100.00,0D
27/05/2011,00:53:54,   0.0,  2.6,  302, +7.1,  81.4,    0.4,  +12.1,  +13.1,   +6.6,+1100.00,0B
27/05/2011,00:54:12,   0.0,  3.3,  267, +7.1,  81.5,    0.2,  +12.2,  +12.9,   +6.7,+1100.00,16
27/05/2011,00:54:30,   0.0,  3.4,  266, +7.1,  81.4,    0.4,  +12.1,  +13.0,   +6.6,+1100.00,0D
27/05/2011,00:54:48,   0.0,  3.1,  307, +7.1,  81.5,    0.2,  +12.0,  +13.1,   +6.6,+1100.00,0E
27/05/2011,00:55:14,   0.0,  2.0,  279, +7.1,  81.5,    0.3,  +12.1,  +13.0,   +6.6,+1100.00,0F
27/05/2011,00:55:32,   0.0,  3.3,  237, +7.1,  81.5,    0.2,  +12.1,  +13.0,   +6.6,+1100.00,0C
27/05/2011,00:55:50,   0.0,  2.6,  286, +7.1,  81.6,    0.4,  +12.2,  +12.9,   +6.6,+1100.00,1E
27/05/2011,00:56:08,   0.0,  3.1,  304, +7.1,  81.7,    0.4,  +12.2,  +13.0,   +6.6,+1100.00,0E
27/05/2011,00:56:34,   0.0,  0.2,  288, +7.1,  81.8,    0.2,  +12.1,  +13.0,   +6.5,+1100.00,13
27/05/2011,00:56:52,   0.0,  2.4,  271, +7.0,  81.7,    0.3,  +12.0,  +13.1,   +6.6,+1100.00,0F
27/05/2011,00:57:10,   0.0,  1.6,  259, +7.0,  81.8,    0.4,  +12.2,  +13.0,   +6.6,+1100.00,14
27/05/2011,00:57:28,   0.0,  0.4,  145, +7.1,  81.7,    0.2,  +12.0,  +13.1,   +6.5,+1100.00,10
27/05/2011,00:57:54,   0.0,  2.0,  280, +7.1,  81.7,    0.3,  +12.1,  +13.0,   +6.5,+1100.00,0E
27/05/2011,00:58:12,   0.0,  1.4,  230, +7.1,  81.7,    0.3,  +12.1,  +13.0,   +6.5,+1100.00,07
27/05/2011,00:58:30,   0.0,  0.8,  283, +7.0,  81.8,    0.5,  +12.1,  +13.0,   +6.5,+1100.00,14
27/05/2011,00:58:48,   0.0,  4.4,  339, +7.0,  81.9,    0.4,  +12.2,  +13.0,   +6.6,+1100.00,21
27/05/2011,00:59:14,   0.0,  1.8,  270, +7.0,  81.9,    0.2,  +12.2,  +13.0,   +6.5,+1100.00,13
27/05/2011,00:59:32,   0.0,  1.6,  219, +7.0,  81.9,    0.2,  +12.1,  +13.0,   +6.6,+1100.00,14
27/05/2011,00:59:50,   0.0,  1.4,  260, +7.1,  81.9,    0.1,  +12.1,  +13.1,   +6.5,+1100.00,0E
27/05/2011,01:00:08,   0.0,  1.5,  249, +7.0,  81.9,    0.3,  +12.2,  +13.0,   +6.5,+1100.00,0D
27/05/2011,01:00:34,   0.0,  1.4,  291, +7.0,  81.9,    0.2,  +12.1,  +13.1,   +6.4,+1100.00,06
27/05/2011,01:00:52,   0.0,  1.5,  291, +7.0,  82.0,    0.3,  +12.1,  +13.0,   +6.5,+1100.00,00
27/05/2011,01:01:10,   0.0,  2.8,  275, +7.0,  82.1,    0.2,  +12.1,  +13.0,   +6.5,+1100.00,01
27/05/2011,01:01:28,   0.0,  2.8,  258, +7.0,  82.2,    0.1,  +12.1,  +13.1,   +6.4,+1100.00,0B
27/05/2011,01:01:54,   0.0,  1.1,  289, +7.0,  82.2,    0.3,  +12.1,  +13.1,   +6.4,+1100.00,08
27/05/2011,01:02:12,   0.0,  1.3,  322, +7.0,  82.2,    0.4,  +12.2,  +12.9,   +6.5,+1100.00,03
27/05/2011,01:02:30,   0.0,  2.2,  281, +7.0,  82.2,    0.4,  +12.2,  +13.0,   +6.4,+1100.00,FE
27/05/2011,01:02:48,   0.0,  2.1,  235, +7.0,  82.3,    0.4,  +12.2,  +13.0,   +6.4,+1100.00,06
27/05/2011,01:03:14,   0.0,  0.5,  223, +7.0,  82.2,    0.2,  +12.1,  +13.0,   +6.4,+1100.00,FB
27/05/2011,01:03:32,   0.0,  2.2,  304, +7.0,  82.3,    0.3,  +12.2,  +12.9,   +6.5,+1100.00,06
27/05/2011,01:03:50,   0.0,  2.9,  282, +7.0,  82.3,    0.5,  +12.0,  +13.1,   +6.3,+1100.00,09
27/05/2011,01:04:08,   0.0,  3.0,  242, +7.0,  82.4,    0.4,  +12.0,  +13.1,   +6.3,+1100.00,01
27/05/2011,01:04:34,   0.0,  2.0,  203, +6.9,  82.4,    0.4,  +12.0,  +13.1,   +6.4,+1100.00,05
27/05/2011,01:04:52,   0.0,  1.4,  269, +7.0,  82.4,    0.2,  +12.0,  +13.1,   +6.4,+1100.00,0A
27/05/2011,01:05:10,   0.0,  1.7,  275, +6.9,  82.4,    0.3,  +12.1,  +13.0,   +6.4,+1100.00,0E
27/05/2011,01:05:28,   0.0,  3.2,  264, +6.9,  82.5,    0.4,  +12.1,  +13.0,   +6.4,+1100.00,14
27/05/2011,01:05:54,   0.0,  2.0,  270, +6.9,  82.5,    0.4,  +12.1,  +13.0,   +6.4,+1100.00,0D
27/05/2011,01:06:12,   0.0,  2.8,  301, +6.9,  82.5,    0.1,  +12.1,  +13.0,   +6.3,+1100.00,07
27/05/2011,01:06:30,   0.0,  1.7,  276, +6.9,  82.5,    0.4,  +12.1,  +13.0,   +6.3,+1100.00,13
27/05/2011,01:06:48,   0.0,  2.1,  251, +6.9,  82.6,    0.4,  +12.1,  +13.1,   +6.3,+1100.00,12
27/05/2011,01:07:14,   0.0,  1.5,  323, +6.9,  82.7,    0.1,  +12.1,  +13.0,   +6.3,+1100.00,0C
27/05/2011,01:07:32,   0.0,  1.4,  238, +7.0,  82.7,    0.2,  +12.1,  +13.1,   +6.3,+1100.00,0A
27/05/2011,01:07:50,   0.0,  1.6,  268, +6.9,  82.6,    0.5,  +12.0,  +13.1,   +6.2,+1100.00,17
27/05/2011,01:08:08,   0.0,  1.8,  284, +6.9,  82.6,    0.2,  +12.1,  +13.0,   +6.3,+1100.00,19
27/05/2011,01:08:34,   0.0,  1.9,  254, +6.9,  82.6,    0.3,  +12.1,  +13.1,   +6.2,+1100.00,17
27/05/2011,01:08:52,   0.0,  2.0,  242, +6.9,  82.6,    0.3,  +12.1,  +13.0,   +6.3,+1100.00,0C
27/05/2011,01:09:10,   0.0,  2.1,  272, +6.9,  82.6,    0.4,  +12.2,  +13.0,   +6.3,+1100.00,0D
27/05/2011,01:09:28,   0.0,  1.9,  213, +6.9,  82.6,    0.3,  +12.1,  +13.0,   +6.3,+1100.00,16
27/05/2011,01:09:54,   0.0,  2.1,  279, +6.9,  82.6,    0.4,  +12.1,  +13.0,   +6.2,+1100.00,1A
27/05/2011,01:10:12,   0.0,  2.0,  242, +6.9,  82.6,    0.3,  +12.2,  +13.0,   +6.2,+1100.00,01
27/05/2011,01:10:30,   0.0,  2.7,  223, +6.9,  82.7,    0.1,  +12.1,  +13.0,   +6.2,+1100.00,05
27/05/2011,01:10:48,   0.0,  1.5,  246, +6.9,  82.7,    0.4,  +12.1,  +13.0,   +6.2,+1100.00,13
27/05/2011,01:11:14,   0.0,  0.6,  216, +6.9,  82.7,    0.3,  +12.1,  +13.0,   +6.2,+1100.00,09
27/05/2011,01:11:32,   0.0,  0.1,  169, +6.9,  82.6,    0.2,  +12.0,  +13.0,   +6.2,+1100.00,08
27/05/2011,01:11:50,   0.0,  0.0,  225, +6.9,  82.6,    0.4,  +12.2,  +13.0,   +6.2,+1100.00,04
27/05/2011,01:12:08,   0.0,  0.0,  232, +6.9,  82.7,    0.4,  +12.1,  +13.0,   +6.2,+1100.00,06
27/05/2011,01:12:34,   0.0,  2.7,  282, +6.9,  82.7,    0.3,  +12.2,  +13.0,   +6.2,+1100.00,13
27/05/2011,01:12:52,   0.0,  1.8,  237, +6.8,  82.7,    0.2,  +12.1,  +13.0,   +6.2,+1100.00,10
27/05/2011,01:13:10,   0.0,  1.3,  232, +6.8,  82.7,    0.4,  +12.2,  +13.0,   +6.2,+1100.00,04
27/05/2011,01:13:28,   0.0,  1.5,  266, +6.8,  82.7,    0.4,  +12.2,  +13.0,   +6.2,+1100.00,16
27/05/2011,01:13:54,   0.0,  2.0,  244, +6.8,  82.7,    0.2,  +12.1,  +13.0,   +6.1,+1100.00,09
27/05/2011,01:14:12,   0.0,  2.1,  274, +6.8,  82.8,    0.3,  +12.2,  +12.9,   +6.2,+1100.00,14
27/05/2011,01:14:30,   0.0,  1.4,  225, +6.8,  82.9,    0.4,  +12.1,  +13.0,   +6.1,+1100.00,0A
27/05/2011,01:14:48,   0.0,  2.6,  241, +6.8,  83.0,    0.5,  +12.2,  +13.0,   +6.2,+1100.00,0F
27/05/2011,01:15:14,   0.0,  2.0,  233, +6.8,  83.0,    0.2,  +12.2,  +12.9,   +6.2,+1100.00,09
27/05/2011,01:15:32,   0.0,  0.9,  281, +6.8,  83.1,    0.3,  +12.2,  +13.0,   +6.1,+1100.00,0C
27/05/2011,01:15:50,   0.0,  2.3,  276, +6.8,  83.1,    0.4,  +12.1,  +13.0,   +6.1,+1100.00,0C
27/05/2011,01:16:08,   0.0,  2.2,  243, +6.8,  83.2,    0.4,  +12.0,  +13.1,   +6.1,+1100.00,0A
27/05/2011,01:16:34,   0.0,  1.0,  271, +6.8,  83.3,    0.2,  +12.2,  +12.9,   +6.1,+1100.00,0F
27/05/2011,01:16:52,   0.0,  2.5,  275, +6.8,  83.3,    0.2,  +12.1,  +13.0,   +6.2,+1100.00,11
27/05/2011,01:17:10,   0.0,  2.2,  245, +6.8,  83.3,    0.1,  +12.1,  +13.0,   +6.1,+1100.00,04
27/05/2011,01:17:28,   0.0,  2.9,  240, +6.8,  83.4,    0.1,  +12.1,  +13.0,   +6.2,+1100.00,11
27/05/2011,01:17:54,   0.0,  2.1,  229, +6.7,  83.5,    0.2,  +12.1,  +13.0,   +6.1,+1100.00,0F
27/05/2011,01:18:12,   0.0,  2.8,  246, +6.8,  83.6,    0.1,  +12.2,  +13.0,   +6.2,+1100.00,13
27/05/2011,01:18:30,   0.0,  1.9,  267, +6.7,  83.6,    0.4,  +12.2,  +13.0,   +6.2,+1100.00,18
27/05/2011,01:18:48,   0.0,  1.1,  292, +6.8,  83.7,    0.4,  +12.1,  +13.0,   +6.1,+1100.00,17
27/05/2011,01:19:14,   0.0,  1.4,  238, +6.8,  83.7,    0.2,  +12.1,  +13.0,   +6.1,+1100.00,12
27/05/2011,01:19:32,   0.0,  1.4,  257, +6.7,  83.8,    0.3,  +12.2,  +13.0,   +6.2,+1100.00,16
27/05/2011,01:19:50,   0.0,  1.6,  312, +6.7,  83.8,    0.4,  +12.2,  +12.9,   +6.2,+1100.00,19
27/05/2011,01:20:08,   0.0,  1.1,  273, +6.7,  83.9,    0.3,  +12.2,  +13.0,   +6.2,+1100.00,0D
27/05/2011,01:20:34,   0.0,  1.6,    2, +6.7,  83.9,    0.3,  +12.0,  +13.1,   +6.1,+1100.00,E5
27/05/2011,01:20:52,   0.0,  3.6,  250, +6.7,  83.9,    0.3,  +12.1,  +13.0,   +6.2,+1100.00,0D
27/05/2011,01:21:10,   0.0,  3.7,  276, +6.7,  83.9,    0.4,  +12.1,  +13.0,   +6.2,+1100.00,12
27/05/2011,01:21:28,   0.0,  2.6,  249, +6.7,  84.0,    0.4,  +12.0,  +13.0,   +6.2,+1100.00,10
27/05/2011,01:21:54,   0.0,  2.2,  272, +6.7,  84.1,    0.3,  +12.2,  +13.0,   +6.3,+1100.00,0A
27/05/2011,01:22:12,   0.0,  1.7,  204, +6.7,  84.1,    0.1,  +12.0,  +13.1,   +6.3,+1100.00,01